Weather History for CYBW - July, 2013

Change the Weather History Date:

Saturday, July 20, 2013

  Actual Average Record
Temperature  
Mean Temperature 62 °F -  
Max Temperature 81 °F 69 °F 82 °F (2003)
Min Temperature 44 °F 43 °F 37 °F (1996)
Degree Days  
Heating Degree Days 2    
Growing Degree Days 12 (Base 50)    
Moisture  
Dew Point 54 °F    
Average Humidity 70    
Maximum Humidity 100    
Minimum Humidity 37    
Precipitation  
Precipitation 0.00 in - - ()
Sea Level Pressure  
Sea Level Pressure 29.93 in    
Wind  
Wind Speed 4 mph ()    
Max Wind Speed 13 mph    
Max Gust Speed 20 mph    
Visibility 8.5 miles    
Events Fog    
Averages and records for this station are not official NWS values.
T = Trace of Precipitation, MM = Missing Value Source: Averaged Metar Reports

Daily Weather History Graph

Daily Weather History Graph

Search for Another Location

Airport or City:

Trip Planner

Search our weather history database for the weather conditions in past years. The results will help you decide how hot, cold, wet, or windy it might be!

Date:

Astronomy

Jul. 20, 2013 Rise Set
Actual Time 5:46 AM MDT 9:40 PM MDT
Civil Twilight 5:03 AM MDT 10:22 PM MDT
Nautical Twilight 4:03 AM MDT 11:22 PM MDT
Astronomical Twilight 2:13 AM MDT 1:06 AM MDT
Moon 7:45 PM MDT (7/20) 3:31 AM MDT (7/20)
Length of Visible Light 17h 19m
Length of Day
15h 53m
Waxing Gibbous, 94% of the Moon is Illuminated
Jul 20
Waxing Gibbous
Jul 22
Full
Jul 29
Last Quarter
Aug 6
New
Aug 14
First Quarter

Hourly Weather History & Observations

Time (MDT) Temp. Dew Point Humidity Pressure Visibility Wind Dir Wind Speed Gust Speed Precip Events Conditions
5:00 AM 48.2 °F 48.2 °F 100% 30.08 in 10.0 mi WSW 4.6 mph - N/A Fog Shallow Fog
6:00 AM 48 °F 48 °F 100% 30.06 in 15 mi West 2.3 mph - -  
6:00 AM 48.2 °F 48.2 °F 100% 30.06 in 15.0 mi West 2.3 mph - N/A Fog Shallow Fog
7:00 AM 48.2 °F 48.2 °F 100% 30.06 in 30.0 mi North 3.5 mph - N/A Fog Shallow Fog
7:42 AM 50.0 °F 50.0 °F 100% 30.04 in 1.0 mi WNW 3.5 mph - N/A   Clear
8:00 AM 51.8 °F 51.8 °F 100% 30.03 in 1.5 mi NW 3.5 mph - N/A   Clear
8:06 AM 51.8 °F 51.8 °F 100% 30.03 in 30.0 mi NW 3.5 mph - N/A   Clear
9:00 AM 57.2 °F 55.4 °F 94% 30.00 in 30.0 mi Calm Calm - N/A   Clear
10:00 AM 62.6 °F 55.4 °F 77% 29.98 in 30.0 mi Calm Calm - N/A   Clear
11:00 AM 68.0 °F 55.4 °F 64% 29.96 in 30.0 mi SSW 4.6 mph - N/A   Clear
12:00 PM 73 °F 55 °F 43% 29.93 in 28 mi Calm Calm - -  
12:00 PM 73.4 °F 55.4 °F 53% 29.92 in 30.0 mi Calm Calm - N/A   Partly Cloudy
1:00 PM 77.0 °F 55.4 °F 47% 29.89 in 30.0 mi NW 5.8 mph - N/A   Scattered Clouds
2:00 PM 80.6 °F 51.8 °F 37% 29.87 in 30.0 mi West 10.4 mph 19.6 mph N/A   Scattered Clouds
3:00 PM 78.8 °F 53.6 °F 42% 29.86 in 30.0 mi South 11.5 mph 19.6 mph N/A   Scattered Clouds
4:00 PM 77.0 °F 59.0 °F 54% 29.86 in 30.0 mi ENE 11.5 mph 17.3 mph N/A   Scattered Clouds
5:00 PM 77.0 °F 57.2 °F 50% 29.85 in 30.0 mi East 12.7 mph - N/A   Scattered Clouds
6:00 PM 75 °F 57 °F 44% 29.83 in 28 mi East 12.7 mph - -   Scattered Clouds
6:00 PM 75.2 °F 57.2 °F 53% 29.82 in 30.0 mi East 11.5 mph - N/A   Scattered Clouds
7:00 PM 75.2 °F 57.2 °F 53% 29.82 in 30.0 mi SSE 9.2 mph - N/A   Mostly Cloudy
8:00 PM 73.4 °F 59.0 °F 61% 29.80 in 30.0 mi SSE 9.2 mph - N/A   Scattered Clouds
9:00 PM 68.0 °F 57.2 °F 68% 29.80 in 30.0 mi ESE 5.8 mph - N/A   Partly Cloudy
10:00 PM 64.4 °F 57.2 °F 77% 29.79 in 30.0 mi Calm Calm - N/A   Partly Cloudy